EW4479 Weather Reports


time (UTC)temp
C
wind
direction
speed
KPH
gust
KPH
rain 1hr
cm
rain 24hr
cm
rain mn
cm
humidity
%
barometer
mb
20210916111814 18 273 1.6 8.0 0.00 1.17 0.15 88 1015.7
20210916111315 19 290 1.6 6.4 0.00 1.17 0.15 88 1015.7
20210916110815 20 333 3.2 9.7 0.00 1.17 0.15 85 1015.6
20210916110315 20 282 3.2 9.7 0.00 1.17 0.15 82 1015.6
20210916105815 21 321 1.6 8.0 0.00 1.17 0.15 82 1015.7
20210916105314 21 216 1.6 11.3 0.00 1.17 0.15 81 1015.7
20210916104810 21 315 1.6 9.7 0.00 1.17 0.15 83 1015.7
20210916104314 20 340 3.2 11.3 0.00 1.17 0.15 82 1015.7
20210916103810 20 267 1.6 11.3 0.00 1.17 0.15 81 1015.8
20210916103310 20 186 1.6 8.0 0.00 1.17 0.15 85 1015.7
20210916102811 20 329 3.2 12.9 0.00 1.17 0.15 83 1015.7
20210916102311 20 230 1.6 12.9 0.00 1.17 0.15 81 1015.9
20210916101811 20 253 1.6 6.4 0.00 1.17 0.15 86 1015.8
20210916101311 19 228 1.6 6.4 0.00 1.17 0.15 87 1016.0
20210916100813 19 210 1.6 8.0 0.00 1.17 0.15 87 1015.9
20210916100311 20 287 3.2 9.7 0.00 1.17 0.15 89 1015.9
20210916095810 20 207 3.2 9.7 0.00 1.17 0.15 87 1016.0
20210916095311 20 262 3.2 8.0 0.00 1.17 0.15 89 1015.9
20210916094811 20 250 3.2 8.0 0.00 1.17 0.15 88 1016.0
20210916094311 19 188 3.2 8.0 0.00 1.17 0.15 89 1016.0
20210916093807 19 229 3.2 8.0 0.00 1.17 0.15 90 1016.0
20210916093309 19 211 3.2 9.7 0.00 1.17 0.15 92 1016.0
20210916092806 18 215 1.6 9.7 0.00 1.17 0.15 91 1016.1
20210916092308 18 199 1.6 6.4 0.00 1.17 0.15 91 1016.0
20210916091807 18 202 3.2 11.3 0.00 1.17 0.15 92 1016.1
20210916091307 18 209 3.2 11.3 0.00 1.17 0.15 92 1016.1
20210916090808 18 237 3.2 9.7 0.00 1.17 0.15 91 1016.1
20210916090307 18 233 3.2 9.7 0.00 1.17 0.15 91 1016.2
20210916085804 18 252 3.2 11.3 0.00 1.17 0.15 90 1016.2
20210916085304 19 257 1.6 11.3 0.03 1.17 0.15 91 1016.2
20210916084802 19 217 1.6 6.4 0.03 1.17 0.15 91 1016.2
20210916084302 18 202 1.6 6.4 0.03 1.17 0.15 95 1016.2
20210916083802 18 265 3.2 8.0 0.03 1.17 0.15 95 1016.3
20210916083302 18 218 3.2 8.0 0.03 1.17 0.15 95 1016.2
20210916082801 18 224 1.6 8.0 0.03 1.17 0.15 95 1016.2
20210916082305 18 218 1.6 8.0 0.03 1.17 0.15 94 1016.1
20210916081803 18 229 1.6 6.4 0.03 1.17 0.15 96 1016.2
20210916081302 17 229 1.6 6.4 0.03 1.17 0.15 95 1016.2
20210916080801 17 263 1.6 6.4 0.03 1.17 0.15 95 1016.1
20210916080302 17 234 0.0 4.8 0.03 1.17 0.15 96 1016.1
20210916075801 17 233 0.0 4.8 0.03 1.17 0.15 96 1016.1
20210916075305 17 246 1.6 6.4 0.00 1.17 0.15 96 1016.1
20210916074802 17 203 1.6 6.4 0.00 1.17 0.15 96 1016.1
20210916074302 17 220 0.0 6.4 0.00 1.17 0.15 96 1016.1
20210916073803 17 217 0.0 4.8 0.00 1.17 0.15 96 1016.0
20210916073300 16 203 1.6 6.4 0.00 1.17 0.15 97 1016.1
20210916072801 16 215 1.6 6.4 0.03 1.17 0.15 97 1016.0
20210916072301 16 220 1.6 6.4 0.03 1.17 0.15 97 1016.0
20210916071801 16 221 1.6 6.4 0.05 1.17 0.15 97 1016.1
20210916071302 16 248 0.0 4.8 0.05 1.17 0.15 98 1016.0
20210916070800 16 240 1.6 4.8 0.08 1.17 0.15 98 1016.1
20210916070300 16 240 1.6 4.8 0.08 1.17 0.15 98 1016.0
20210916065801 16 240 3.2 4.8 0.10 1.17 0.15 98 1016.1
20210916065301 16 227 3.2 6.4 0.13 1.17 0.15 98 1016.0
20210916064801 16 219 1.6 6.4 0.15 1.17 0.15 98 1016.0
20210916064301 16 240 0.0 6.4 0.15 1.17 0.15 99 1015.9
20210916063800 15 240 0.0 4.8 0.15 1.17 0.15 99 1016.0
20210916063301 15 240 0.0 4.8 0.15 1.17 0.15 99 1015.9
20210916062801 15 240 0.0 4.8 0.13 1.17 0.13 99 1016.0
20210916062301 15 254 0.0 3.2 0.13 1.17 0.13 99 1016.0
20210916061801 15 254 0.0 3.2 0.10 1.14 0.10 99 1015.9
20210916061301 15 254 0.0 0.0 0.08 1.12 0.08 99 1016.0
20210916060803 15 254 0.0 0.0 0.05 1.09 0.05 99 1016.0
20210916060300 15 254 0.0 0.0 0.05 1.09 0.05 99 1016.0
20210916055801 15 254 0.0 0.0 0.05 1.09 0.05 99 1016.1
20210916055301 15 254 0.0 1.6 0.03 1.07 0.03 99 1016.0
20210916054802 15 254 0.0 1.6 0.00 1.04 0.00 99 1015.9
20210916054301 15 254 0.0 1.6 0.00 1.04 0.00 99 1015.9
20210916053801 15 254 0.0 1.6 0.00 1.04 0.00 99 1015.9
20210916053300 15 254 0.0 1.6 0.00 1.04 0.00 99 1015.9
20210916052804 15 254 0.0 1.6 0.00 1.04 0.00 99 1015.8
20210916052305 15 254 0.0 1.6 0.00 1.04 0.00 99 1015.8
20210916051804 15 254 0.0 1.6 0.00 1.04 0.00 99 1015.7
20210916051303 15 254 0.0 0.0 0.00 1.04 0.00 99 1015.6
20210916050803 15 254 0.0 0.0 0.00 1.04 0.00 99 1015.5
20210916050305 15 254 0.0 0.0 0.00 1.04 0.00 99 1015.5
20210916045803 15 254 0.0 0.0 0.00 1.04 0.00 99 1015.4
20210916045305 15 254 0.0 0.0 0.00 1.04 0.00 99 1015.4
20210916044803 15 254 0.0 0.0 0.00 1.04 0.00 99 1015.5
20210916044302 15 254 0.0 0.0 0.00 1.04 0.00 99 1015.5
20210916043802 15 254 0.0 0.0 0.00 1.04 0.00 99 1015.3
20210916043304 15 254 0.0 0.0 0.00 1.04 0.00 99 1015.3
20210916042803 15 254 0.0 0.0 0.00 1.04 0.00 99 1015.3
20210916042305 15 254 0.0 0.0 0.00 1.04 0.00 99 1015.4
20210916041803 15 254 0.0 0.0 0.00 1.04 0.00 99 1015.5
20210916041302 15 254 0.0 0.0 0.00 1.04 0.00 99 1015.5
20210916040802 15 254 0.0 0.0 0.00 1.04 0.00 99 1015.5
20210916040303 15 254 0.0 0.0 0.00 1.04 0.00 99 1015.5
20210916035803 15 254 0.0 1.6 0.00 1.04 0.00 99 1015.5
20210916035305 15 254 0.0 1.6 0.00 1.04 0.00 99 1015.6
20210916034802 15 254 0.0 1.6 0.00 1.04 0.00 99 1015.6
20210916034301 15 254 0.0 1.6 0.00 1.04 0.00 99 1015.6
20210916033800 15 254 0.0 1.6 0.00 1.04 0.00 99 1015.6
20210916033302 15 254 0.0 1.6 0.00 1.04 0.00 99 1015.6
20210916032801 15 254 0.0 0.0 0.00 1.04 0.00 99 1015.7
20210916032301 15 254 0.0 1.6 0.00 1.04 0.00 99 1015.7
20210916031758 15 254 0.0 1.6 0.00 1.04 0.00 99 1015.8
20210916031259 15 254 0.0 1.6 0.00 1.04 0.00 99 1015.7
20210916030758 15 254 0.0 1.6 0.00 1.04 0.00 99 1015.6
20210916030301 14 254 0.0 1.6 0.00 1.04 0.00 99 1015.6
20210916025758 14 254 0.0 1.6 0.00 1.04 0.00 98 1015.5
20210916025259 14 254 0.0 1.6 0.00 1.04 0.00 98 1015.5
20210916024800 14 254 0.0 0.0 0.00 1.04 0.00 98 1015.5
20210916024258 14 254 0.0 0.0 0.00 1.04 0.00 98 1015.6
20210916023759 14 254 0.0 0.0 0.00 1.04 0.00 98 1015.6
20210916023301 14 254 0.0 0.0 0.00 1.04 0.00 98 1015.7
20210916022759 15 254 0.0 0.0 0.00 1.04 0.00 98 1015.6
20210916022305 15 254 0.0 0.0 0.00 1.04 0.00 98 1015.6
20210916021800 15 254 0.0 0.0 0.00 1.04 0.00 98 1015.7
20210916021256 15 254 0.0 0.0 0.00 1.04 0.00 98 1015.7
20210916020756 15 254 0.0 0.0 0.00 1.04 0.00 98 1015.6
20210916020254 15 254 0.0 1.6 0.00 1.04 0.00 98 1015.7
20210916015755 15 254 0.0 1.6 0.00 1.04 0.00 98 1015.9
20210916015255 15 254 0.0 1.6 0.00 1.04 0.00 97 1015.9
20210916014757 15 254 0.0 1.6 0.00 1.04 0.00 97 1015.9
20210916014254 15 254 0.0 1.6 0.00 1.04 0.00 97 1015.9
20210916013751 15 254 0.0 1.6 0.00 1.04 0.00 97 1015.9
20210916013246 16 254 0.0 1.6 0.00 1.04 0.00 97 1016.0
20210916012746 16 254 0.0 1.6 0.00 1.04 0.00 97 1016.0
20210916012247 16 254 0.0 3.2 0.00 1.04 0.00 96 1016.1
20210916011747 16 254 0.0 3.2 0.00 1.04 0.00 96 1016.0
20210916011230 16 254 0.0 3.2 0.00 1.04 0.00 96 1016.0
20210916010731 16 254 0.0 3.2 0.00 1.04 0.00 96 1016.0
20210916010229 16 254 0.0 3.2 0.00 1.04 0.00 96 1015.9
20210916005729 16 254 0.0 3.2 0.00 1.04 0.00 96 1015.9
20210916005229 16 254 0.0 1.6 0.00 1.04 0.00 96 1015.9
20210916004729 16 254 0.0 1.6 0.00 1.04 0.00 96 1015.9
20210916004231 16 254 0.0 3.2 0.00 1.04 0.00 96 1015.9
20210916003729 16 254 0.0 3.2 0.00 1.04 0.00 96 1015.8
20210916003229 16 255 0.0 4.8 0.00 1.04 0.00 95 1015.9
20210916002729 16 254 0.0 4.8 0.00 1.04 0.00 95 1016.0
20210916002229 16 257 0.0 4.8 0.00 1.04 0.00 95 1016.1
20210916001728 16 246 0.0 3.2 0.00 1.04 0.00 95 1016.1
20210916001228 16 246 0.0 4.8 0.00 1.04 0.00 95 1016.1
20210916000731 16 209 1.6 6.4 0.00 1.04 0.00 95 1016.1
20210915235729 16 230 1.6 8.0 0.00 1.04 0.00 95 1016.1
20210915235229 16 251 1.6 8.0 0.00 1.04 0.00 95 1016.1
20210915234729 16 232 1.6 8.0 0.00 1.04 0.00 95 1016.0
20210915234228 16 217 3.2 11.3 0.00 1.04 0.00 95 1016.0
20210915233729 16 213 4.8 11.3 0.00 1.04 0.00 95 1016.0
20210915233228 16 221 3.2 11.3 0.00 1.04 0.00 95 1016.0
20210915232729 16 254 3.2 8.0 0.00 1.04 0.00 95 1015.9
20210915232228 16 223 1.6 8.0 0.00 1.04 0.00 95 1016.0
20210915231729 16 223 1.6 9.7 0.00 1.04 0.00 95 1015.9
20210915231228 16 215 3.2 9.7 0.00 1.04 0.00 95 1015.8
20210915230733 16 217 4.8 9.7 0.00 1.04 0.00 95 1015.8
20210915230230 16 226 3.2 9.7 0.00 1.04 0.00 95 1015.8
20210915225731 16 224 1.6 4.8 0.00 1.04 0.00 95 1015.7
20210915225229 16 198 1.6 9.7 0.00 1.04 0.00 95 1015.8
20210915224730 16 212 1.6 9.7 0.00 1.04 0.00 95 1015.8
20210915224230 16 232 1.6 4.8 0.00 1.04 0.00 95 1015.7
20210915223730 16 226 1.6 6.4 0.00 1.04 0.00 95 1015.7
20210915223229 16 192 1.6 6.4 0.00 1.04 0.00 95 1015.7
20210915222730 16 221 1.6 8.0 0.00 1.04 0.00 96 1015.8
20210915222229 16 227 3.2 8.0 0.00 1.04 0.00 96 1015.7
20210915221730 16 217 3.2 9.7 0.00 1.04 0.00 96 1015.7
20210915221230 16 213 4.8 9.7 0.00 1.04 0.00 96 1015.7
20210915220729 16 189 4.8 11.3 0.00 1.04 0.00 96 1015.7
20210915220230 16 201 4.8 11.3 0.00 1.04 0.00 97 1015.7
20210915215730 16 194 4.8 9.7 0.00 1.04 1.04 97 1015.7
20210915215229 17 192 3.2 8.0 0.00 1.04 1.04 97 1015.7
20210915214729 17 173 4.8 11.3 0.00 1.04 1.04 96 1015.8
20210915214229 17 184 6.4 12.9 0.00 1.04 1.04 96 1015.8
20210915213730 17 182 6.4 12.9 0.00 1.04 1.04 96 1015.7
20210915213233 17 185 4.8 9.7 0.03 1.04 1.04 96 1015.7
20210915212730 17 170 3.2 9.7 0.03 1.04 1.04 96 1015.7
20210915212230 17 166 3.2 8.0 0.05 1.04 1.04 96 1015.7
20210915211730 17 187 3.2 8.0 0.05 1.04 1.04 97 1015.8
20210915211233 17 215 3.2 8.0 0.05 1.04 1.04 97 1015.8
20210915210730 17 188 4.8 8.0 0.05 1.04 1.04 97 1015.8
20210915210234 17 194 3.2 8.0 0.05 1.04 1.04 97 1015.8
20210915205730 17 182 3.2 8.0 0.05 1.04 1.04 97 1015.9
20210915205229 17 179 1.6 6.4 0.05 1.04 1.04 97 1015.9
20210915204729 17 201 1.6 6.4 0.05 1.04 1.04 97 1016.0
20210915204229 17 187 3.2 6.4 0.05 1.04 1.04 97 1016.0
20210915203730 17 210 3.2 6.4 0.15 1.04 1.04 97 1016.0
20210915203230 17 182 0.0 6.4 0.15 1.02 1.02 97 1016.1
20210915202733 17 219 0.0 4.8 0.18 1.02 1.02 98 1016.2
20210915202231 17 219 0.0 4.8 0.15 0.99 0.99 98 1016.2
20210915201729 17 210 0.0 3.2 0.15 0.99 0.99 98 1016.1
20210915201231 17 210 0.0 1.6 0.15 0.99 0.99 98 1016.2
20210915200729 17 210 0.0 1.6 0.15 0.99 0.99 98 1016.2
20210915200230 17 210 0.0 1.6 0.15 0.99 0.99 98 1016.2
20210915195734 17 210 0.0 1.6 0.18 0.99 0.99 98 1016.2
20210915195231 17 210 0.0 1.6 0.23 0.99 0.99 98 1016.3
20210915194730 17 210 0.0 4.8 0.25 0.99 0.99 98 1016.2
20210915194229 17 210 0.0 4.8 0.23 0.99 0.99 97 1016.2
20210915193730 17 223 0.0 3.2 0.15 0.89 0.89 98 1016.2
20210915193230 17 223 0.0 3.2 0.13 0.86 0.86 97 1016.1
20210915192730 17 221 0.0 3.2 0.10 0.84 0.84 97 1016.1
20210915192232 17 221 0.0 3.2 0.10 0.84 0.84 98 1016.1
20210915191729 17 221 0.0 3.2 0.10 0.84 0.84 98 1016.1
20210915191230 17 221 1.6 6.4 0.10 0.84 0.84 98 1016.0
20210915190730 17 221 1.6 6.4 0.10 0.84 0.84 98 1016.0
20210915190230 17 182 0.0 6.4 0.13 0.84 0.84 98 1016.0
20210915185730 17 225 0.0 3.2 0.13 0.81 0.81 97 1015.9
20210915185233 17 249 0.0 3.2 0.13 0.79 0.79 97 1016.1
20210915184730 17 249 0.0 3.2 0.13 0.74 0.74 97 1015.8
20210915184230 17 249 0.0 3.2 0.15 0.74 0.74 97 1015.8
20210915183730 17 249 0.0 1.6 0.15 0.74 0.74 97 1015.7
20210915183230 17 249 0.0 3.2 0.20 0.74 0.74 97 1015.6
20210915182730 17 249 0.0 3.2 0.23 0.74 0.74 97 1015.5
20210915182229 17 249 0.0 1.6 0.25 0.74 0.74 97 1015.5
20210915181730 17 249 0.0 3.2 0.28 0.74 0.74 97 1015.5
20210915181230 17 249 0.0 3.2 0.33 0.74 0.74 97 1015.4
20210915180731 17 249 0.0 1.6 0.36 0.74 0.74 97 1015.3
20210915180230 17 249 0.0 1.6 0.41 0.71 0.71 97 1015.4
20210915175730 17 249 0.0 1.6 0.51 0.69 0.69 97 1015.4
20210915175230 17 249 0.0 1.6 0.58 0.66 0.66 96 1015.4
20210915174731 17 249 0.0 1.6 0.58 0.61 0.61 96 1015.3
20210915174230 17 249 0.0 1.6 0.58 0.61 0.61 96 1015.3
20210915173730 17 249 0.0 3.2 0.56 0.58 0.58 96 1015.3
20210915173230 17 249 0.0 3.2 0.51 0.53 0.53 96 1015.3
20210915172730 17 249 0.0 3.2 0.48 0.51 0.51 96 1015.2
20210915172230 17 249 0.0 3.2 0.46 0.48 0.48 96 1015.1
20210915171729 17 249 0.0 3.2 0.43 0.46 0.46 96 1015.0
20210915171230 18 252 0.0 4.8 0.41 0.43 0.43 94 1015.2
20210915170729 18 252 0.0 4.8 0.36 0.38 0.38 92 1015.7
20210915170229 18 239 0.0 4.8 0.30 0.33 0.33 94 1016.0
20210915165730 18 239 0.0 4.8 0.15 0.15 0.15 93 1016.0
20210915165230 19 19 0.0 3.2 0.05 0.08 0.08 92 1015.7
20210915164730 19 26 0.0 1.6 0.03 0.05 0.05 91 1015.3
20210915164230 19 26 0.0 0.0 0.00 0.03 0.03 89 1015.1
20210915163730 19 26 0.0 0.0 0.00 0.03 0.03 88 1015.0
20210915163224 19 27 0.0 0.0 0.00 0.03 0.03 88 1014.9
20210915162725 19 26 0.0 0.0 0.00 0.03 0.03 88 1014.8
20210915162224 20 27 0.0 1.6 0.00 0.03 0.03 87 1014.8
20210915161721 20 26 0.0 3.2 0.00 0.03 0.03 86 1014.8
20210915161221 20 26 0.0 3.2 0.00 0.03 0.03 85 1014.8
20210915160716 20 27 0.0 1.6 0.00 0.03 0.03 85 1014.6
20210915160217 20 26 0.0 1.6 0.00 0.03 0.03 85 1014.6
20210915155712 20 27 0.0 1.6 0.00 0.03 0.03 82 1014.5
20210915155205 20 26 0.0 1.6 0.00 0.03 0.03 81 1014.6
20210915154705 21 26 0.0 4.8 0.00 0.03 0.03 81 1014.6
20210915154204 21 26 0.0 4.8 0.00 0.03 0.03 80 1014.6
20210915153704 21 71 0.0 3.2 0.00 0.03 0.03 80 1014.6
20210915153205 21 71 0.0 3.2 0.00 0.03 0.03 79 1014.6
20210915152706 21 71 0.0 3.2 0.00 0.03 0.03 79 1014.6
20210915152205 21 72 0.0 3.2 0.00 0.03 0.03 79 1014.5
20210915151707 21 34 0.0 3.2 0.00 0.03 0.03 79 1014.4
20210915151204 21 18 0.0 3.2 0.00 0.03 0.03 80 1014.5
20210915150705 21 15 0.0 1.6 0.00 0.03 0.03 79 1014.8
20210915150205 21 15 0.0 1.6 0.00 0.03 0.03 79 1014.8
20210915145705 21 15 0.0 0.0 0.00 0.03 0.03 80 1014.8
20210915145206 21 15 0.0 1.6 0.00 0.03 0.03 81 1014.8
20210915144704 21 15 0.0 1.6 0.00 0.03 0.03 81 1014.8
20210915144205 21 15 0.0 1.6 0.00 0.03 0.03 81 1014.9
20210915143705 21 13 0.0 1.6 0.00 0.03 0.03 80 1014.8
20210915143205 21 13 0.0 6.4 0.00 0.03 0.03 80 1014.6
20210915142702 21 13 0.0 6.4 0.00 0.03 0.03 78 1014.6
20210915142203 21 329 0.0 6.4 0.00 0.03 0.03 77 1014.6
20210915141703 21 5 0.0 4.8 0.00 0.03 0.03 77 1014.6
20210915141202 22 0 0.0 4.8 0.00 0.03 0.03 76 1014.6
20210915140701 22 0 0.0 4.8 0.00 0.03 0.03 74 1014.8
20210915140201 22 34 0.0 4.8 0.00 0.03 0.03 76 1014.8
20210915135701 22 25 1.6 4.8 0.00 0.03 0.03 77 1014.6
20210915135203 22 37 1.6 6.4 0.00 0.03 0.03 75 1014.6
20210915134701 22 135 1.6 8.0 0.00 0.03 0.03 76 1014.8
20210915134201 22 9 0.0 8.0 0.00 0.03 0.03 76 1014.9
20210915133701 22 36 0.0 4.8 0.00 0.03 0.03 76 1014.9
20210915133203 22 38 0.0 4.8 0.00 0.03 0.03 79 1014.9
20210915132700 21 19 0.0 4.8 0.00 0.03 0.03 83 1014.9
20210915132204 20 19 0.0 4.8 0.00 0.03 0.03 84 1015.0
20210915131701 20 5 0.0 3.2 0.00 0.03 0.03 82 1015.0
20210915131203 20 17 0.0 3.2 0.00 0.03 0.03 83 1015.0
20210915130700 21 17 0.0 3.2 0.00 0.03 0.03 82 1015.0
20210915130202 21 329 0.0 3.2 0.00 0.03 0.03 82 1015.1
20210915125700 21 319 0.0 4.8 0.00 0.03 0.03 81 1015.4
20210915125202 21 319 1.6 4.8 0.00 0.03 0.03 81 1015.4
20210915124700 21 351 1.6 6.4 0.00 0.03 0.03 81 1015.3
20210915124205 21 340 1.6 6.4 0.00 0.03 0.03 79 1015.5
20210915123701 21 5 1.6 6.4 0.00 0.03 0.03 78 1015.6
20210915123203 21 0 1.6 9.7 0.00 0.03 0.03 78 1015.5
20210915122701 21 309 1.6 9.7 0.00 0.03 0.03 78 1015.6
20210915122202 21 279 1.6 11.3 0.00 0.03 0.03 78 1015.6
20210915121701 21 275 3.2 11.3 0.00 0.03 0.03 79 1015.6
20210915121202 21 261 1.6 8.0 0.00 0.03 0.03 79 1015.6
20210915120701 22 285 3.2 9.7 0.00 0.03 0.03 78 1015.6
20210915120202 22 286 1.6 9.7 0.00 0.03 0.03 77 1015.5
20210915115700 22 321 1.6 6.4 0.00 0.03 0.03 77 1015.5
20210915115202 22 302 1.6 6.4 0.00 0.03 0.03 77 1015.4
20210915114701 22 307 1.6 8.0 0.00 0.03 0.03 80 1015.5
20210915114201 21 275 1.6 8.0 0.00 0.03 0.03 81 1015.6
20210915113701 21 317 1.6 8.0 0.00 0.03 0.03 80 1015.7
20210915113202 21 283 3.2 8.0 0.00 0.03 0.03 81 1015.7
20210915112704 21 318 1.6 6.4 0.00 0.03 0.03 79 1015.6